Regional Weather Roundup
Issued by NWS Goodland, KS

Home | Current Version | Previous Version | Graphics & Text | Print | Product List | Glossary On
Versions: 1 2 3 4 5 6 7 8 9 10 11 12 13 14 15 16 17 18 19 20 21 22 23 24 25 26 27 28 29 30 31 32 33 34 35 36 37 38 39 40 41 42 43 44 45 46 47 48 49 50
000
ASUS43 KGLD 241059
RWRGLD

GOODLAND FORECAST AREA HOURLY WEATHER ROUNDUP
NATIONAL WEATHER SERVICE GOODLAND KS
500 AM MDT WED AUG 24 2016

...OFFICIAL OBSERVATIONS...

CITY           SKY/WX    TMP DP  RH WIND       PRES   REMARKS
GOODLAND KS    CLOUDY    65  46  50 NE16      30.02F
HILL CITY KS   CLOUDY    67  55  65 N8        29.98R
IMPERIAL NEB   MOCLDY    62  44  51 NE6       30.08S
MCCOOK NEB     CLOUDY    62  47  57 N8        30.04R
AKRON CO       CLOUDY    62  41  46 CALM      30.14F
BURLINGTON CO  CLOUDY    65  42  43 NW10      30.09R
LIMON CO       MOCLDY    60  42  51 W6        30.15S
$$

...UNOFFICIAL OBSERVATIONS...

CITY           SKY/WX    TMP DP  RH WIND       PRES   REMARKS
COLBY KS       CLEAR     64  52  63 N14       30.05F
LENORA KS        N/A     64  32  30 MISG        N/A
NORTON KS      CLEAR     61  46  59 NW6       30.00S
SHARON SPRINGS   N/A     66  51  58 NE13G21     N/A
TRENTON NEB      N/A     64  32  30 MISG        N/A
KIT CARSON CO    N/A     67  45  44 MISG        N/A
YUMA CO          N/A     60  47  61 CALM        N/A
$$



USA.gov is the U.S. government's official web portal to all federal, state and local government web resources and services.